Tracking 27380 objects as of 5-Jun-2023
HD Live streaming from Space Station
objects crossing your sky now

INSAT 4A

Track INSAT 4A now!
INSAT 4A is classified as:


NORAD ID: 28911
Int'l Code: 2005-049A
Perigee: 36,075.5 km
Apogee: 36,117.5 km
Inclination: 3.6 °
Period: 1,451.6 minutes
Semi major axis: 42467 km
RCS: 12.5892 m2 (large)
Launch date: December 21, 2005
Source: India (IND)
Launch site: FRENCH GUIANA (FRGUI)
Your satellite tracking list
Your tracking list is empty




NASA's NSSDC Master Catalog

Two Line Element Set (TLE):
1 28911U 05049A   23156.17821152 -.00000082  00000-0  00000-0 0  9994
2 28911   3.5844  85.0662 0004938  44.9138 199.0295  0.99201362 34438
Source of the keplerian elements: AFSPC